Find Starlink 33653

NORAD ID: 63380 Int'l Des: 2025-063 Owner: SPXS Country: US Constellation: starlink operational
LEOCIRCULAR

当前视图

正在加载3D地球...

About Starlink 33653

Starlink 33653 (NORAD 63380) is a starlink constellation satellite (v2 mini) launched Mar 26, 2025 by SPXS of US. It operates in LEO, CIRCULAR orbit with a mass of 575.00 kg.

关于 Starlink 33653

正在加载描述...

即将过境

Passes for default location (London). Set your location on the main map for personalized predictions.

高度历史

Loading altitude history...

两行轨道根数

1 63380U 25063T 26165.70896141 .00025687 00000-0 87610-3 0 9995
2 63380 53.1616 321.8111 0000886 86.1325 273.9777 15.30210642 69560
Epoch: Jun 14, 2026 • Age: 29 hours

当前状态

高度 478.5 km
速度 7.63 km/s
星下点 -12.41°S, 89.78°W
发射日期 Mar 26, 2025
运行时间 1.2 years
类型 internet

技术详情

分类 Payload
质量 575.00 kg
干质量 530.00 kg
总质量 575.00 kg
长度 0.30 m
直径 4.10 m
跨度 29.00 m
形状 Box + pan
制造商 SPXS
平台类型 Starlink V2MO
阶段状态 In Orbit
所有者/国家 SPXS/US

Most Searched